Location: Home
(42.5358°N, 72.7383°W)
Time: 10:52:34
(UTC-05:00)

Vanguard 2 Rocket - Pass Details

Date: 07 December 2021
Orbit: 553 x 3325 km, 32.9° (Epoch: 23 January)

Event Time Altitude Azimuth Distance (km) Brightness Sun altitude
Rises 22:39:07 0° 266° (W) 4,553 - -66.2°
Reaches altitude 10° 22:42:35 10° 252° (WSW) 3,966 - -66.6°
Maximum altitude 22:50:37 23° 205° (SSW) 3,813 - -67.4°
Drops below altitude 10° 23:01:50 10° 162° (SSE) 5,680 - -68.4°
Sets 23:08:21 0° 150° (SSE) 7,042 - -68.9°
